| time (UTC) | temp C | wind direction | speed KPH | gust KPH | rain 1hr cm | rain 24hr cm | rain mn cm | humidity % | barometer mb |
| 20260502152234 | 17 | 8 | 3.2 | 8.0 | 0.00 | 3.76 | 0.00 | 74 | 1021.4 |
| 20260502151258 | 17 | 23 | 3.2 | 8.0 | 0.00 | 3.76 | 0.00 | 75 | 1021.4 |
| 20260502150247 | 17 | 7 | 1.6 | 6.4 | 0.00 | 3.76 | 0.00 | 76 | 1021.3 |
| 20260502130228 | 12 | 350 | 3.2 | 6.4 | 0.00 | 4.45 | 0.00 | 89 | 1020.2 |
| 20260502123227 | 11 | 345 | 1.6 | 4.8 | 0.00 | 4.93 | 0.00 | 91 | 1019.7 |
| 20260502122239 | 11 | 9 | 1.6 | 6.4 | 0.00 | 4.93 | 0.00 | 92 | 1019.5 |
| 20260502121224 | 11 | 11 | 1.6 | 3.2 | 0.00 | 4.93 | 0.00 | 92 | 1019.4 |
| 20260502120233 | 11 | 11 | 0.0 | 0.0 | 0.00 | 4.93 | 0.00 | 92 | 1019.4 |
| 20260502115224 | 11 | 10 | 0.0 | 0.0 | 0.00 | 5.13 | 0.00 | 92 | 1019.2 |
| 20260502114231 | 11 | 11 | 0.0 | 3.2 | 0.00 | 5.13 | 0.00 | 92 | 1019.3 |
| 20260502113300 | 11 | 11 | 0.0 | 1.6 | 0.00 | 5.13 | 0.00 | 92 | 1019.2 |
| 20260502112226 | 11 | 11 | 0.0 | 3.2 | 0.00 | 5.13 | 0.00 | 92 | 1019.0 |
| 20260502111232 | 11 | 56 | 0.0 | 1.6 | 0.00 | 5.13 | 0.00 | 92 | 1018.8 |
| 20260502110304 | 11 | 350 | 1.6 | 4.8 | 0.00 | 5.13 | 0.00 | 92 | 1018.6 |
| 20260502105231 | 11 | 21 | 1.6 | 4.8 | 0.00 | 5.41 | 0.00 | 92 | 1018.5 |
| 20260502104258 | 11 | 24 | 1.6 | 4.8 | 0.00 | 5.41 | 0.00 | 92 | 1018.5 |
| 20260502103225 | 11 | 21 | 1.6 | 4.8 | 0.00 | 5.41 | 0.00 | 92 | 1018.4 |
| 20260502102232 | 11 | 19 | 1.6 | 3.2 | 0.00 | 5.41 | 0.00 | 92 | 1018.3 |
| 20260502101241 | 12 | 21 | 1.6 | 3.2 | 0.00 | 5.41 | 0.00 | 92 | 1018.2 |
| 20260502100229 | 12 | 20 | 1.6 | 3.2 | 0.00 | 5.41 | 0.00 | 91 | 1018.1 |
| 20260502091228 | 12 | 51 | 0.0 | 3.2 | 0.00 | 5.61 | 0.00 | 91 | 1017.1 |
| 20260502090237 | 12 | 76 | 0.0 | 3.2 | 0.00 | 5.61 | 0.00 | 90 | 1016.9 |
| 20260502071245 | 13 | 36 | 1.6 | 6.4 | 0.00 | 7.34 | 0.00 | 90 | 1016.6 |
| 20260502070233 | 13 | 37 | 1.6 | 6.4 | 0.00 | 7.34 | 0.00 | 90 | 1016.6 |
| 20260502065241 | 13 | 37 | 1.6 | 4.8 | 0.00 | 7.47 | 0.00 | 90 | 1016.7 |
| 20260502064231 | 13 | 50 | 1.6 | 4.8 | 0.00 | 7.47 | 0.00 | 90 | 1016.7 |
| 20260502063300 | 13 | 1 | 1.6 | 4.8 | 0.00 | 7.47 | 0.00 | 90 | 1016.7 |
| 20260502062226 | 13 | 23 | 1.6 | 6.4 | 0.00 | 7.47 | 0.00 | 90 | 1016.7 |
| 20260502061233 | 13 | 17 | 0.0 | 3.2 | 0.00 | 7.47 | 0.00 | 90 | 1016.7 |
| 20260502060225 | 13 | 182 | 1.6 | 9.7 | 0.00 | 7.47 | 0.00 | 91 | 1016.7 |
| 20260502055232 | 13 | 325 | 1.6 | 9.7 | 0.00 | 7.57 | 0.00 | 90 | 1016.6 |
| 20260502054238 | 13 | 350 | 1.6 | 6.4 | 0.00 | 7.57 | 0.00 | 90 | 1016.7 |
| 20260502053226 | 13 | 324 | 1.6 | 8.0 | 0.00 | 7.57 | 0.00 | 90 | 1016.6 |
| 20260502052239 | 13 | 32 | 1.6 | 6.4 | 0.00 | 7.57 | 0.00 | 90 | 1016.5 |
| 20260502051304 | 13 | 13 | 3.2 | 9.7 | 0.00 | 7.57 | 0.00 | 90 | 1016.6 |
| 20260502050231 | 13 | 358 | 3.2 | 9.7 | 0.00 | 7.57 | 0.00 | 91 | 1016.3 |
| 20260502045239 | 13 | 345 | 1.6 | 6.4 | 0.00 | 8.43 | 7.57 | 91 | 1016.2 |
| 20260502044229 | 13 | 6 | 3.2 | 6.4 | 0.00 | 8.43 | 7.57 | 92 | 1016.2 |
| 20260502043258 | 13 | 345 | 3.2 | 9.7 | 0.00 | 8.43 | 7.57 | 92 | 1016.1 |
| 20260502042226 | 13 | 356 | 3.2 | 6.4 | 0.00 | 8.43 | 7.57 | 92 | 1016.1 |
| 20260502041233 | 13 | 340 | 1.6 | 4.8 | 0.00 | 8.43 | 7.57 | 93 | 1016.2 |
| 20260502040227 | 13 | 31 | 1.6 | 6.4 | 0.00 | 8.43 | 7.57 | 93 | 1016.2 |
| 20260502035255 | 13 | 19 | 3.2 | 6.4 | 0.00 | 8.43 | 7.57 | 93 | 1016.1 |
| 20260502034240 | 13 | 350 | 3.2 | 6.4 | 0.00 | 8.43 | 7.57 | 93 | 1015.9 |
| 20260502033229 | 13 | 350 | 1.6 | 8.0 | 0.00 | 8.43 | 7.57 | 94 | 1015.9 |
| 20260502032257 | 13 | 340 | 3.2 | 6.4 | 0.00 | 8.43 | 7.57 | 94 | 1016.0 |
| 20260502031247 | 13 | 340 | 3.2 | 8.0 | 0.00 | 8.43 | 7.57 | 94 | 1015.9 |
| 20260502030235 | 13 | 354 | 3.2 | 8.0 | 0.00 | 8.43 | 7.57 | 94 | 1015.8 |
| 20260502025243 | 13 | 303 | 3.2 | 9.7 | 0.00 | 8.43 | 7.57 | 94 | 1015.6 |
| 20260502024228 | 13 | 355 | 3.2 | 6.4 | 0.00 | 8.43 | 7.57 | 94 | 1015.4 |
| 20260502023242 | 13 | 33 | 3.2 | 8.0 | 0.00 | 8.43 | 7.57 | 94 | 1015.1 |
| 20260502022228 | 13 | 345 | 3.2 | 12.9 | 0.03 | 8.43 | 7.57 | 94 | 1014.7 |
| 20260502021254 | 13 | 5 | 3.2 | 9.7 | 0.05 | 8.43 | 7.57 | 94 | 1014.2 |
| 20260502020242 | 13 | 354 | 3.2 | 6.4 | 0.05 | 8.43 | 7.57 | 94 | 1013.9 |
| 20260502015234 | 13 | 340 | 1.6 | 9.7 | 0.10 | 8.43 | 7.57 | 94 | 1013.8 |
| 20260502014300 | 14 | 345 | 3.2 | 6.4 | 0.15 | 8.43 | 7.57 | 94 | 1013.4 |
| 20260502013228 | 14 | 4 | 1.6 | 4.8 | 0.28 | 8.43 | 7.57 | 94 | 1013.7 |
| 20260502012236 | 14 | 359 | 3.2 | 9.7 | 0.30 | 8.41 | 7.54 | 94 | 1013.5 |
| 20260502011225 | 14 | 354 | 3.2 | 9.7 | 0.30 | 8.38 | 7.52 | 94 | 1013.6 |
| 20260502010234 | 15 | 33 | 1.6 | 8.0 | 0.30 | 8.38 | 7.52 | 94 | 1013.4 |
| 20260502005241 | 15 | 1 | 3.2 | 6.4 | 0.30 | 8.33 | 7.47 | 94 | 1013.0 |
| 20260502004227 | 15 | 38 | 3.2 | 9.7 | 0.30 | 8.28 | 7.42 | 94 | 1013.2 |
| 20260502003240 | 15 | 350 | 3.2 | 6.4 | 0.20 | 8.13 | 7.26 | 95 | 1013.5 |
| 20260502002228 | 15 | 333 | 1.6 | 6.4 | 0.25 | 8.10 | 7.24 | 95 | 1014.1 |
| 20260502001235 | 15 | 329 | 1.6 | 6.4 | 0.36 | 8.08 | 7.21 | 94 | 1013.0 |
| 20260502000243 | 15 | 327 | 3.2 | 6.4 | 0.71 | 8.08 | 7.21 | 94 | 1012.4 |
| 20260501235235 | 15 | 22 | 1.6 | 8.0 | 0.66 | 8.03 | 7.16 | 95 | 1012.6 |
| 20260501234240 | 15 | 13 | 1.6 | 6.4 | 0.61 | 7.98 | 7.11 | 95 | 1013.0 |
| 20260501233229 | 15 | 22 | 3.2 | 6.4 | 0.58 | 7.92 | 7.06 | 94 | 1013.0 |
| 20260501232236 | 15 | 30 | 1.6 | 4.8 | 0.69 | 7.85 | 6.99 | 94 | 1013.0 |
| 20260501231246 | 16 | 354 | 3.2 | 9.7 | 0.56 | 7.72 | 6.86 | 94 | 1012.2 |
| 20260501230235 | 16 | 354 | 3.2 | 9.7 | 0.20 | 7.37 | 6.50 | 95 | 1012.5 |
| 20260501225305 | 16 | 350 | 1.6 | 11.3 | 0.20 | 7.37 | 6.50 | 95 | 1010.8 |
| 20260501224226 | 16 | 61 | 4.8 | 16.1 | 0.20 | 7.37 | 6.50 | 94 | 1010.2 |
| 20260501223234 | 16 | 47 | 1.6 | 16.1 | 0.18 | 7.34 | 6.48 | 94 | 1010.6 |
| 20260501222246 | 16 | 46 | 3.2 | 6.4 | 0.00 | 7.16 | 6.30 | 94 | 1011.2 |
| 20260501221229 | 16 | 34 | 3.2 | 11.3 | 0.03 | 7.16 | 6.30 | 94 | 1010.4 |
| 20260501220238 | 16 | 47 | 3.2 | 9.7 | 0.05 | 7.16 | 6.30 | 94 | 1009.8 |
| 20260501215246 | 16 | 29 | 3.2 | 17.7 | 0.13 | 7.16 | 6.30 | 94 | 1010.1 |
| 20260501214251 | 16 | 355 | 4.8 | 9.7 | 0.33 | 7.16 | 6.30 | 94 | 1010.5 |
| 20260501213303 | 16 | 15 | 3.2 | 8.0 | 0.38 | 7.16 | 6.30 | 94 | 1010.5 |
| 20260501212231 | 16 | 340 | 3.2 | 11.3 | 0.46 | 7.16 | 6.30 | 94 | 1010.4 |
| 20260501211256 | 16 | 354 | 3.2 | 12.9 | 0.51 | 7.14 | 6.27 | 95 | 1011.0 |
| 20260501210225 | 17 | 350 | 3.2 | 8.0 | 0.51 | 7.11 | 6.25 | 95 | 1010.7 |
| 20260501205236 | 17 | 329 | 3.2 | 6.4 | 0.46 | 7.04 | 6.17 | 95 | 1011.0 |
| 20260501204242 | 17 | 2 | 1.6 | 6.4 | 0.28 | 6.83 | 5.97 | 95 | 1010.4 |
| 20260501203230 | 17 | 359 | 4.8 | 8.0 | 0.25 | 6.78 | 5.92 | 95 | 1010.2 |
| 20260501202258 | 17 | 13 | 3.2 | 6.4 | 0.33 | 6.71 | 5.84 | 95 | 1010.1 |
| 20260501201228 | 17 | 350 | 3.2 | 8.0 | 0.30 | 6.63 | 5.77 | 95 | 1009.9 |
| 20260501200236 | 17 | 9 | 1.6 | 6.4 | 0.30 | 6.60 | 5.74 | 95 | 1010.0 |
| 20260501195243 | 17 | 350 | 3.2 | 9.7 | 0.28 | 6.58 | 5.71 | 95 | 1009.5 |
| 20260501194229 | 17 | 7 | 3.2 | 9.7 | 0.28 | 6.55 | 5.69 | 95 | 1008.5 |
| 20260501193258 | 17 | 31 | 1.6 | 6.4 | 0.28 | 6.53 | 5.66 | 95 | 1010.1 |
| 20260501192229 | 17 | 360 | 1.6 | 4.8 | 0.18 | 6.38 | 5.51 | 95 | 1011.0 |
| 20260501191256 | 17 | 26 | 1.6 | 6.4 | 0.36 | 6.32 | 5.46 | 95 | 1010.1 |
| 20260501190243 | 17 | 26 | 1.6 | 6.4 | 0.36 | 6.30 | 5.44 | 95 | 1009.9 |
| 20260501185231 | 17 | 30 | 1.6 | 6.4 | 0.38 | 6.30 | 5.44 | 95 | 1010.0 |
| 20260501184301 | 17 | 31 | 0.0 | 9.7 | 0.48 | 6.27 | 5.41 | 95 | 1010.1 |
| 20260501183230 | 17 | 71 | 0.0 | 4.8 | 0.51 | 6.25 | 5.38 | 95 | 1010.5 |
| 20260501182238 | 17 | 30 | 0.0 | 11.3 | 0.48 | 6.20 | 5.33 | 95 | 1010.0 |
| 20260501181224 | 17 | 40 | 1.6 | 4.8 | 0.30 | 5.97 | 5.11 | 95 | 1009.8 |
| 20260501180257 | 17 | 356 | 3.2 | 12.9 | 0.30 | 5.94 | 5.08 | 95 | 1009.1 |
| 20260501175241 | 16 | 34 | 3.2 | 12.9 | 0.28 | 5.92 | 5.05 | 95 | 1008.8 |
| 20260501174228 | 16 | 47 | 1.6 | 17.7 | 0.15 | 5.79 | 4.93 | 95 | 1008.9 |
| 20260501173236 | 16 | 46 | 6.4 | 17.7 | 0.13 | 5.74 | 4.88 | 95 | 1008.7 |
| 20260501172227 | 16 | 2 | 3.2 | 8.0 | 0.13 | 5.71 | 4.85 | 95 | 1010.3 |
| 20260501171234 | 16 | 354 | 3.2 | 8.0 | 0.13 | 5.66 | 4.80 | 95 | 1011.3 |
| 20260501170243 | 16 | 358 | 3.2 | 6.4 | 0.23 | 5.64 | 4.78 | 95 | 1011.3 |
| 20260501165230 | 17 | 345 | 3.2 | 6.4 | 0.36 | 5.64 | 4.78 | 95 | 1012.3 |
| 20260501164240 | 17 | 358 | 3.2 | 9.7 | 0.53 | 5.64 | 4.78 | 95 | 1011.3 |
| 20260501163229 | 17 | 354 | 3.2 | 6.4 | 0.76 | 5.61 | 4.75 | 95 | 1011.0 |
| 20260501162236 | 17 | 4 | 3.2 | 8.0 | 0.86 | 5.59 | 4.72 | 95 | 1011.9 |
| 20260501161242 | 17 | 356 | 3.2 | 8.0 | 0.84 | 5.54 | 4.67 | 95 | 1011.4 |
| 20260501160255 | 17 | 340 | 1.6 | 6.4 | 0.74 | 5.41 | 4.55 | 95 | 1012.9 |
| 20260501155242 | 17 | 40 | 3.2 | 6.4 | 0.64 | 5.28 | 4.42 | 95 | 1013.3 |